Rbgn^[z[y[W
メイン
   新天体発見情報
     Comet C/2017 M5 (TOTAS)
投稿するにはまず登録を

スレッド表示 | 新しいものから 前のトピック | 次のトピック | 下へ
投稿者 スレッド
佐藤裕久
投稿日時: 2017-7-7 23:07
モデレータ
登録日: 2005-6-12
居住地: 日本
投稿: 1797
オンライン
Comet C/2017 M5 (TOTAS)

Matthias Busch (Heppenheim, ドイツ)の通報によると、6月23日、P. RuizがTeide Observatory 
Tenerife Asteroid Survey (TOTAS)のコースにスペインのESA(欧州宇宙機関)の光学地上局の1.0-m 
f/4.4 反射望遠鏡で得た画像から、T. Thommesが移動する天体を確認した。Buschはイメージが
少し「ファジー」であると気づいた。8"-10" の小さなコマがあるように見える。
小惑星センターのPCCPwebpageに公表後、K. Sarneczky (Konkoly Observatory, 0.60-m Schmidt
望遠鏡, Piszkesteto, ハンガリー)や佐藤英貴氏(東京都文京区, iTelescope Sierra Remote天文台, 
0.61-m f/6.5 アストログラフ+輝度フィルター, Auberry, カリフォルニア州, 遠隔操作)らCCD位置
観測者によって彗星状と観測された。

発見位置は次のとおり、

     2017 UT             R.A. (2000) Decl.       Mag.   Observer
     June 23.06510   18 30 03.94   - 6 46 54.2   18.6   Ruiz
          23.07678   18 30 03.68   - 6 46 54.1   18.6     "
          23.08847   18 30 03.50   - 6 46 53.3   18.4     "
          23.10016   18 30 03.21   - 6 46 52.6   18.7     "

放物線軌道要素と位置推算表は次のとおり、

Orbital elements:
    C/2017 M5 (TOTAS)
T 2018 Aug. 30.21251 TT                                 MPCW
q   5.9983753            (2000.0)            P               Q
                   Peri.   97.78403     +0.69374627     +0.69911272
                   Node   218.12818     -0.72015685     +0.67018738
e   1.0            Incl.   16.27992     -0.00949841     +0.24917921
From 64 observations 2017 June 23-July 1.

Ephemeris:
    C/2017 M5 (TOTAS)
Date    TT    R. A. (2000) Decl.     Delta      r     Elong.  Phase   m1
2017 06 01    18 36 27.2 -07 17 21   5.9052  6.7810   147.3     4.6  18.7
...
2017 06 16    18 32 18.5 -06 54 19   5.7762  6.7340   158.9     3.1  18.6
...
2017 06 24    18 29 45.7 -06 46 05   5.7320  6.7094   162.7     2.6  18.6
...
2017 06 30    18 27 47.2 -06 41 52   5.7105  6.6911   163.4     2.5  18.5
2017 07 01    18 27 27.4 -06 41 20   5.7079  6.6881   163.3     2.5  18.5
2017 07 02    18 27 07.6 -06 40 51   5.7056  6.6851   163.1     2.5  18.5
...
2017 07 08    18 25 10.1 -06 38 54   5.6976  6.6671   161.0     2.8  18.5
...
2017 07 16    18 22 40.6 -06 38 54   5.7021  6.6434   156.0     3.6  18.5
...
2017 07 31    18 18 43.9 -06 46 19   5.7555  6.5999   143.6     5.2  18.5

(CBET 4410、MPEC 2017-N25)


スレッド表示 | 新しいものから 前のトピック | 次のトピック | トップ

投稿するにはまず登録を
 
© 1999-2013 Tsutomu Seki.